Vertical_Velocity
-1 -3 -1 -1 -0 -0 0 1 1 1 1 -2 -3 -2 -3 -6 -5 0 -16 -10 9 8 10 -3 7 5 14 3 3 5 13 -0 -11 5 -19 -7 4 -6 0 9 3 -7 3 -2 -5
-5 -2 -5 -4 -5 -3 -4 -2 -1 -2 -2 -1 -0 1 -3 -5 -3 -9 10 7 -2 -0 -5 -2 -5 2 1 2 8 12 5 -11 -6 -3 -4 -3 7 1 8 2 -3 10 6 1 0
0 1 2 2 -1 -1 -1 -3 -1 2 1 -2 -0 1 -4 -5 -4 18 -13 9 1 -1 2 -2 11 6 13 11 -6 -9 -5 -5 -8 -5 3 -0 -1 -4 2 -1 -9 -4 1 0 -6
3 -2 -7 -7 -3 -4 0 -0 2 -0 -2 1 -1 -4 -7 0 1 5 1 1 -2 0 2 -1 1 8 9 5 -6 21 -1 -0 -12 -7 4 0 -0 -2 6 -15 8 7 -5 -5 -5
-1 -3 2 -0 -3 -6 -8 -7 -4 1 2 -0 1 1 -5 -7 -33 5 -11 3 -5 -1 7 9 12 5 3 2 7 12 -6 2 -3 1 -3 4 -4 -6 -6 -0 -19 6 37 1 -6
-1 -0 0 2 5 2 4 -7 -9 3 0 2 4 2 2 14 -6 1 9 -0 -1 0 -1 5 0 6 0 0 10 -5 -1 -6 -3 -5 0 11 -8 27 -14 -7 9 -2 -3 1 -4
4 3 5 -0 4 10 7 3 2 -4 3 1 2 2 5 -53 -3 -10 -1 -4 8 5 -7 -0 1 11 3 0 -10 -3 12 -1 -3 -7 -7 8 3 -2 -9 0 1 -10 12 -2 -5
1 3 6 10 6 5 13 2 5 -0 1 3 4 4 -11 -12 5 4 1 -5 4 6 -2 -2 7 -4 7 -5 -4 11 18 10 -24 2 -18 23 -27 -10 -6 6 -3 2 5 7 1
3 4 2 4 1 11 14 7 -0 1 1 3 -3 8 -17 6 -3 5 8 2 5 -8 8 -1 19 -1 -1 7 5 2 -3 4 -1 -2 0 13 -13 -13 -1 5 -2 -2 4 -3 6
2 2 -0 7 1 17 24 9 5 3 -0 1 6 15 -3 -15 9 -5 -11 6 -1 -2 -4 6 8 2 5 9 -13 -6 5 0 -2 -14 7 1 -8 -3 -5 6 -2 -5 1 -1 5
14 -1 5 -3 -2 18 17 6 -4 -1 7 -13 -3 -9 9 8 21 -12 -3 3 5 11 3 -4 9 -5 -12 -4 -3 3 5 1 -8 -10 14 -6 -2 -7 -4 7 2 0 -1 -0 -0
-1 -3 -2 -2 4 3 14 -3 3 0 -7 -19 -20 3 -1 -5 0 -15 4 7 10 -1 3 8 -3 -9 1 2 5 3 3 -12 -10 -4 18 -1 -10 -6 -0 -8 -6 -1 1 -6 -4
0 -0 1 16 2 19 7 -2 -5 -12 -0 -15 3 1 2 3 -5 -10 4 1 2 3 0 2 -13 2 8 -0 9 -3 2 -4 2 -5 -6 8 -9 1 -3 4 5 -3 1 4 -4
-1 1 8 4 20 4 0 -2 -10 -12 -1 1 1 -4 -1 -1 0 -9 -5 6 0 1 2 -0 -8 3 2 1 9 7 -5 4 3 12 -4 8 -20 -2 -2 -4 3 -1 -1 -1 -2
1 4 15 17 3 -0 -6 -8 -8 -2 2 12 8 7 14 5 6 16 8 15 -1 -2 13 -27 -1 -1 3 -13 7 -20 5 2 2 3 16 -11 16 -17 5 2 -3 -3 -3 -4 1
-0 22 -7 8 8 8 2 -3 -6 -1 -1 4 3 -1 5 1 -4 -5 3 2 -6 8 1 -6 -7 12 -3 -5 5 -5 9 2 5 7 14 -18 16 -10 -4 -15 -3 -1 -3 -5 -5
-1 17 9 6 -8 -2 -6 -7 -5 2 5 -0 1 1 0 -4 -7 2 -0 -0 4 4 -1 -6 -9 -8 14 15 -0 12 9 -1 3 11 -11 -3 21 -33 -5 -4 -7 -7 -4 -3 -3
-10 22 10 -1 -12 -5 -9 -4 2 -2 0 -1 0 -0 3 4 -2 -1 -1 -1 -4 5 2 4 -29 5 -14 4 -14 -7 3 0 -7 -2 -17 0 -3 -46 -11 -4 -2 -4 -10 3 -0
0 7 3 13 4 2 -1 0 1 -1 -0 1 -3 4 -4 2 -2 1 1 1 -0 -1 1 -0 -10 -12 5 -0 9 -31 13 -22 12 -1 10 -2 -3 -3 4 0 -1 -1 4 0 -3
-2 0 15 0 1 2 -2 -1 1 -1 -1 2 1 2 0 -0 0 -1 1 -3 -1 4 -1 -4 -1 -1 -19 4 -8 -7 -13 12 4 6 -0 -5 -2 -12 1 -3 -1 -0 -3 -2 2
2 -9 18 1 -5 -5 -0 -2 1 0 -5 -1 -0 1 -2 -1 1 -1 -5 -11 -1 -2 -0 1 8 -22 4 -0 -1 -3 5 5 4 0 -3 2 -13 -16 -9 -6 -6 -6 -5 -6 -0
-9 -3 -1 10 -0 -0 0 -3 -1 0 1 -1 4 3 2 0 0 1 -2 -1 1 2 0 4 2 -0 -8 -16 5 4 -0 1 10 -7 -1 -1 -28 -1 -1 -4 -1 -4 -5 -3 -1
-2 -0 7 0 2 0 0 -1 -2 3 -1 1 0 0 0 0 2 2 -0 -9 2 0 -1 -2 -3 -2 -24 -7 -12 0 -3 1 1 1 -4 7 -26 -2 -1 3 -1 -1 0 -1 -3
-1 1 6 8 1 4 1 -3 1 2 -0 0 0 6 5 2 -2 -2 -1 -2 0 1 1 -1 0 -2 -2 -5 2 0 -2 -1 4 2 1 -13 -11 -10 -9 -2 -2 1 0 1 2
-4 -5 -5 0 -1 1 3 0 1 1 1 2 2 2 -0 2 0 -2 -1 -3 -1 -2 1 -5 -0 4 -3 -0 3 1 -0 -1 2 -3 5 -3 2 -5 -6 -1 -3 1 3 2 1
-1 -1 4 -0 2 7 -1 -4 -1 0 -3 -0 5 -3 1 2 -7 -1 6 2 -3 -2 -1 0 -4 2 -6 -3 2 -0 -2 0 -0 -2 1 3 -9 -3 -4 0 2 -0 -1 1 2
10 2 -1 -2 1 4 -5 -9 -7 3 -2 -4 -5 7 5 -11 -2 0 5 2 3 -0 -0 0 0 -0 -4 1 -1 -5 -2 -1 -2 0 4 5 -1 -0 -7 -0 1 0 -1 -2 -2
Height
1520 1516 1513 1510 1507 1503 1499 1495 1491 1488 1485 1482 1480 1477 1473 1468 1461 1458 1452 1451 1453 1453 1454 1455 1455 1457 1461 1459 1461 1462 1463 1457 1452 1451 1444 1439 1435 1435 1437 1437 1438 1438 1438 1440 1448
1515 1512 1508 1506 1503 1500 1497 1493 1489 1485 1482 1480 1478 1475 1470 1465 1457 1447 1448 1447 1444 1445 1447 1449 1452 1454 1453 1452 1453 1451 1449 1444 1443 1440 1439 1435 1432 1432 1436 1434 1434 1435 1436 1439 1447
1509 1506 1504 1502 1499 1495 1492 1489 1485 1482 1479 1477 1475 1473 1469 1463 1456 1443 1442 1446 1444 1440 1439 1446 1450 1454 1450 1446 1445 1443 1434 1437 1436 1438 1437 1433 1431 1430 1431 1433 1432 1433 1435 1439 1446
1505 1502 1499 1496 1493 1491 1488 1484 1482 1478 1475 1473 1470 1469 1466 1466 1461 1444 1443 1443 1443 1441 1441 1443 1446 1445 1442 1437 1440 1438 1432 1434 1435 1435 1434 1431 1431 1427 1428 1429 1430 1432 1428 1433 1441
1500 1496 1492 1487 1483 1481 1481 1480 1477 1473 1470 1468 1468 1466 1464 1460 1446 1446 1442 1442 1441 1442 1442 1442 1442 1443 1438 1437 1437 1430 1427 1429 1430 1430 1429 1430 1427 1426 1425 1427 1428 1427 1429 1424 1434
1491 1487 1483 1479 1475 1472 1469 1467 1469 1468 1467 1464 1463 1463 1463 1451 1438 1441 1442 1440 1440 1440 1440 1440 1438 1440 1434 1429 1427 1426 1429 1425 1424 1421 1423 1423 1422 1424 1422 1424 1423 1424 1422 1423 1428
1484 1479 1475 1470 1466 1462 1460 1458 1458 1460 1459 1460 1460 1459 1457 1433 1434 1435 1435 1436 1437 1437 1437 1436 1437 1439 1435 1429 1423 1422 1426 1422 1415 1413 1413 1420 1416 1410 1417 1419 1419 1421 1424 1424 1428
1476 1471 1467 1463 1458 1454 1451 1451 1452 1451 1454 1454 1455 1456 1444 1430 1430 1429 1430 1430 1431 1431 1432 1432 1434 1434 1435 1427 1419 1417 1419 1419 1397 1408 1404 1416 1401 1407 1411 1413 1413 1414 1417 1419 1422
1468 1464 1460 1455 1449 1444 1440 1441 1443 1444 1447 1447 1449 1452 1435 1428 1427 1426 1428 1427 1426 1428 1427 1428 1429 1430 1430 1426 1425 1412 1408 1401 1399 1396 1401 1402 1398 1402 1405 1406 1407 1407 1409 1413 1417
1460 1456 1451 1446 1441 1437 1433 1435 1436 1440 1441 1442 1445 1450 1431 1424 1425 1424 1425 1426 1426 1426 1424 1424 1424 1424 1421 1418 1406 1403 1403 1399 1392 1393 1398 1396 1390 1395 1398 1398 1399 1401 1402 1405 1408
1452 1447 1442 1437 1433 1429 1428 1430 1436 1438 1435 1430 1431 1425 1419 1421 1422 1420 1421 1422 1423 1424 1423 1418 1419 1408 1399 1407 1405 1402 1398 1391 1384 1387 1390 1389 1384 1385 1388 1390 1391 1392 1394 1397 1401
1443 1439 1434 1428 1423 1419 1420 1423 1426 1429 1429 1427 1423 1421 1420 1422 1420 1415 1416 1419 1416 1417 1418 1418 1404 1401 1409 1406 1405 1404 1403 1393 1388 1384 1383 1379 1371 1376 1377 1375 1380 1383 1385 1389 1394
1434 1430 1425 1421 1415 1413 1414 1419 1421 1425 1430 1418 1415 1416 1417 1418 1417 1413 1414 1413 1412 1412 1409 1407 1398 1399 1398 1398 1399 1396 1397 1389 1390 1390 1381 1376 1374 1366 1364 1366 1371 1374 1376 1380 1383
1426 1423 1420 1414 1413 1411 1415 1417 1421 1423 1426 1411 1412 1412 1414 1415 1413 1410 1412 1414 1409 1407 1405 1398 1394 1395 1396 1393 1389 1390 1383 1387 1385 1396 1395 1383 1384 1369 1365 1364 1360 1365 1369 1370 1374
1419 1415 1414 1407 1406 1409 1412 1416 1418 1423 1418 1406 1410 1412 1412 1413 1411 1406 1409 1410 1409 1407 1411 1398 1394 1396 1393 1387 1391 1383 1383 1384 1385 1389 1392 1385 1386 1366 1358 1359 1353 1356 1359 1363 1365
1413 1411 1403 1402 1402 1406 1411 1416 1421 1424 1415 1407 1409 1410 1412 1410 1409 1406 1406 1408 1408 1405 1406 1398 1397 1395 1388 1385 1387 1383 1385 1383 1381 1386 1389 1377 1387 1359 1353 1344 1344 1343 1350 1353 1358
1407 1405 1400 1399 1404 1409 1413 1418 1422 1416 1410 1413 1410 1409 1411 1410 1405 1403 1403 1404 1406 1413 1405 1398 1392 1388 1387 1389 1385 1385 1391 1393 1394 1385 1365 1366 1376 1354 1340 1333 1330 1335 1338 1343 1349
1397 1396 1399 1401 1406 1412 1415 1423 1419 1413 1413 1415 1413 1412 1411 1406 1405 1406 1406 1407 1404 1401 1404 1405 1399 1384 1377 1378 1381 1375 1380 1385 1381 1370 1355 1343 1349 1335 1334 1326 1319 1320 1328 1333 1339
1398 1398 1403 1407 1409 1414 1419 1417 1412 1413 1421 1418 1412 1410 1405 1403 1411 1411 1408 1403 1397 1395 1408 1411 1393 1379 1374 1371 1371 1366 1368 1366 1372 1358 1358 1347 1334 1319 1315 1320 1315 1316 1316 1319 1327
1401 1403 1409 1410 1412 1417 1419 1416 1417 1420 1423 1422 1417 1411 1411 1405 1411 1413 1409 1399 1398 1400 1403 1403 1406 1379 1366 1362 1353 1355 1356 1367 1361 1368 1358 1332 1336 1321 1310 1309 1308 1310 1312 1313 1317
1404 1411 1417 1416 1420 1423 1421 1417 1414 1418 1421 1423 1414 1413 1408 1410 1412 1414 1411 1403 1402 1403 1403 1407 1405 1384 1375 1360 1356 1359 1356 1354 1357 1352 1347 1345 1317 1286 1298 1292 1297 1302 1302 1306 1309
1412 1417 1420 1420 1424 1420 1414 1412 1414 1415 1419 1419 1415 1412 1410 1406 1409 1410 1407 1404 1401 1403 1404 1404 1410 1401 1380 1359 1358 1359 1356 1361 1358 1353 1341 1343 1314 1287 1299 1281 1280 1286 1289 1293 1301
1413 1417 1419 1422 1417 1413 1410 1410 1410 1413 1413 1415 1409 1408 1406 1409 1413 1403 1400 1400 1401 1403 1406 1404 1406 1399 1386 1359 1371 1375 1365 1365 1365 1359 1354 1343 1297 1294 1292 1276 1275 1279 1285 1290 1295
1412 1414 1417 1416 1411 1408 1403 1405 1407 1406 1409 1411 1410 1407 1407 1406 1403 1403 1399 1398 1399 1401 1401 1403 1404 1406 1409 1399 1396 1385 1374 1369 1366 1358 1352 1322 1306 1306 1313 1308 1286 1280 1282 1285 1287
1405 1403 1401 1405 1405 1406 1407 1402 1400 1403 1407 1408 1407 1403 1403 1408 1402 1399 1396 1395 1395 1398 1398 1406 1411 1399 1391 1384 1378 1372 1370 1368 1368 1360 1351 1331 1319 1309 1314 1313 1303 1286 1281 1284 1287
1395 1397 1397 1394 1393 1397 1400 1397 1397 1398 1402 1401 1399 1393 1391 1399 1398 1397 1396 1398 1399 1396 1401 1401 1406 1398 1389 1375 1362 1362 1357 1353 1353 1349 1342 1330 1304 1311 1307 1317 1304 1288 1287 1289 1290
1385 1388 1390 1389 1389 1392 1388 1384 1386 1392 1392 1389 1393 1393 1387 1384 1387 1388 1389 1391 1393 1397 1401 1400 1401 1402 1393 1372 1370 1368 1344 1336 1332 1338 1336 1324 1313 1313 1315 1307 1306 1294 1287 1289 1292